Simultaneous Nadir Overpasses (SNOs) Predictions

Prediction of SNOs between FY3D and NOAA-19 Satellite Orbit:

Table of predicted SNOs for the next 14.0 days since TLE Epoch: 5/28/2022
Index Date (FY3D) Time (FY3D) Lat,Lon (FY3D) SZA (FY3D ) Date (NOAA-19) Time (NOAA-19) Lat,Lon (NOAA-19) SZA (NOAA-19 ) Distance(km) Time Diff (sec)
1 06/01/2022 23:58:17 77.53, 163.43 55.88 06/01/2022 23:57:07 77.54, 163.54 55.90 2.92 70
2 06/02/2022 00:49:03 -77.54, -29.33 124.11 06/02/2022 00:48:04 -77.53, -29.25 124.12 2.77 59
3 06/02/2022 01:39:48 77.52, 138.12 55.85 06/02/2022 01:39:07 77.53, 138.03 55.89 2.96 41
4 06/02/2022 02:30:34 -77.53, -54.64 124.14 06/02/2022 02:30:04 -77.52, -54.76 124.13 3.08 30
5 06/02/2022 03:21:20 77.54, 112.61 55.88 06/02/2022 03:21:07 77.53, 112.52 55.88 2.55 13
6 06/02/2022 04:12:06 -77.56, -80.15 124.12 06/02/2022 04:12:03 -77.56, -80.08 124.12 1.69 3
7 06/02/2022 05:02:52 77.57, 87.10 55.90 06/02/2022 05:03:06 77.57, 87.21 55.89 2.48 14
8 06/02/2022 05:53:38 -77.58,-105.65 124.09 06/02/2022 05:54:03 -77.56,-105.59 124.13 3.34 25
9 06/02/2022 06:44:23 77.55, 61.79 55.87 06/02/2022 06:45:06 77.57, 61.69 55.88 2.70 43
10 06/02/2022 07:35:08 -77.57,-130.96 124.12 06/02/2022 07:36:01 -77.59,-130.90 124.11 2.98 53
11 06/02/2022 08:25:54 77.58, 36.29 55.90 06/02/2022 08:27:04 77.60, 36.38 55.89 3.26 70
12 06/02/2022 09:16:47 -77.88,-157.89 123.72 06/02/2022 09:17:55 -77.82,-155.17 123.98 63.86 68



Historial Predications of SNOs between FY3D and NOAA-19
